sat.trackr.live / text

‹ back to catalog

STARLINK-11167 [DTC]

NORAD 60061 · 2024-113C

PAYLOAD ACTIVE UNKNOWN

§ Identity

Operator
Country
US
Launch date
2024-06-19
Launch site
AFWTR
Launch vehicle
Mass (kg)
RCS (m²)

Purposes: comms

External: N2YO · Heavens-Above · Gunter

§ Orbital elements

Epoch: 2026-09-21T02:35:25.605600Z

Period
91.74 min
Inclination
53.1607°
Eccentricity
0.0001227
Mean motion
15.69718637 rev/d
Perigee alt
358.9 km
Apogee alt
360.5 km
Semi-major
6,737.8 km
B*
2.2811e-5
RAAN
307.8859°
Arg perigee
100.8037°
Mean anomaly
259.3119°
Rev number
13,055

§ Raw data

STARLINK-11167 [DTC]1 60061U 24113C   26264.10793525  .00002176  00000+0  22811-4 0  99992 60061  53.1607 307.8859 0001227 100.8037 259.3119 15.69718637130555

JSON: /api/v1/satellites/60061 · /tle

For live sub-satellite position, see the globe view (requires WebGL).

§ Visibility from observer

Set your observer location to see the next 7 days of passes ≥ 10°. The values pass through the URL so the page stays shareable.

No JS? Fill the form by hand. The geolocation button needs JavaScript.